This is the latest recevied weather packets stored in our database for station/object K1BES. If no packets are shown the sender has not sent any weather packets the latest 10 day(s).
| Time | Temp. | Humidity | Pressure | Rain* | Wind** | Luminosity | Snow |
|---|---|---|---|---|---|---|---|
| 1788045162 | 23.89° C | 96% | 1019.2 hPa | 0 mm | - | 10 W/m² | - |
| 1788044862 | 23.89° C | 96% | 1019.6 hPa | 0 mm | - | 11 W/m² | - |
| 1788044557 | 23.89° C | 96% | 1019.3 hPa | 0 mm | - | 13 W/m² | - |
| 1788044256 | 23.89° C | 96% | 1019.3 hPa | 0 mm | - | 14 W/m² | - |
| 1788043952 | 23.89° C | 96% | 1019.2 hPa | 0 mm | - | 16 W/m² | - |
| 1788043648 | 23.33° C | 96% | 1018.7 hPa | 0 mm | - | 17 W/m² | - |
| 1788043343 | 23.33° C | 96% | 1018.8 hPa | 0 mm | - | 19 W/m² | - |
| 1788043042 | 23.33° C | 95% | 1018.4 hPa | 0 mm | - | 21 W/m² | - |
| 1788042738 | 23.33° C | 95% | 1018.2 hPa | 0 mm | - | 24 W/m² | - |
| 1788042436 | 23.33° C | 95% | 1017.8 hPa | 0 mm | - | 25 W/m² | - |
| 1788042132 | 23.33° C | 95% | 1017.8 hPa | 0 mm | - | 26 W/m² | - |
| 1788041827 | 23.33° C | 95% | 1017.7 hPa | 0 mm | - | 27 W/m² | - |
| 1788041522 | 23.33° C | 95% | 1017.6 hPa | 1.27 mm | - | 26 W/m² | - |
| 1788041217 | 23.33° C | 95% | 1017.9 hPa | 3.05 mm | - | 26 W/m² | - |
| 1788040916 | 23.33° C | 95% | 1018 hPa | 1.78 mm | - | 26 W/m² | - |
| 1788040614 | 23.33° C | 95% | 1018.2 hPa | 0 mm | - | 24 W/m² | - |
| 1788040310 | 23.89° C | 95% | 1018.4 hPa | 1.27 mm | - | 22 W/m² | - |
| 1788040009 | 23.33° C | 95% | 1018.7 hPa | 1.27 mm | - | 19 W/m² | - |
| 1788039705 | 23.33° C | 95% | 1018.7 hPa | 0 mm | - | 17 W/m² | - |
| 1788039400 | 23.33° C | 95% | 1018.9 hPa | 0 mm | - | 16 W/m² | - |
| 1788039096 | 23.89° C | 95% | 1019.3 hPa | 0 mm | - | 16 W/m² | - |
| 1788038791 | 23.89° C | 95% | 1019.7 hPa | 0 mm | - | 17 W/m² | - |
| 1788038491 | 23.89° C | 95% | 1019.3 hPa | 0 mm | - | 16 W/m² | - |
| 1788038191 | 23.89° C | 95% | 1019.6 hPa | 0 mm | - | 13 W/m² | - |
| 1788037890 | 23.33° C | 95% | 1019.4 hPa | 1.78 mm | - | 11 W/m² | - |
* Rain latest hour (hover to see other rain measurements)
** Current wind speed in m/s (hover to see current wind gust speed)